This is the latest recevied weather packets stored in our database for station/object DL1VED. If no packets are shown the sender has not sent any weather packets the latest 10 day(s).
| Time | Temp. | Humidity | Pressure | Rain* | Wind** | Luminosity | Snow |
|---|---|---|---|---|---|---|---|
| 1777709652 | 19.44° C | 100% | 1020.5 hPa | 0 mm | - | - | - |
| 1777708752 | 18.89° C | 100% | 1020.4 hPa | 0 mm | - | - | - |
| 1777707852 | 18.33° C | 100% | 1020.6 hPa | 0 mm | - | - | - |
| 1777706952 | 17.22° C | 51% | 1020.6 hPa | 0 mm | - | - | - |
| 1777706052 | 16.67° C | 52% | 1020.9 hPa | 0 mm | - | - | - |
| 1777705152 | 15.56° C | 54% | 1020.8 hPa | 0 mm | - | - | - |
| 1777704258 | 15° C | 57% | 1021.1 hPa | 0 mm | - | - | - |
| 1777704252 | 15° C | 57% | 1021.1 hPa | 0 mm | - | - | - |
| 1777703352 | 13.33° C | 60% | 1021.1 hPa | 0 mm | - | - | - |
| 1777702452 | 12.78° C | 64% | 1021.1 hPa | 0 mm | - | - | - |
| 1777701552 | 11.67° C | 100% | 1021.1 hPa | 0 mm | - | - | - |
| 1777700652 | 11.11° C | 100% | 1021.1 hPa | 0 mm | - | - | - |
| 1777699752 | 10° C | 66% | 1021 hPa | 0 mm | - | - | - |
| 1777698852 | 9.44° C | 100% | 1021 hPa | 0 mm | - | - | - |
| 1777697952 | 9.44° C | 100% | 1021.1 hPa | 0 mm | - | - | - |
| 1777697053 | 9.44° C | 67% | 1021 hPa | 0 mm | - | - | - |
| 1777696152 | 9.44° C | 100% | 1020.9 hPa | 0 mm | - | - | - |
| 1777695253 | 9.44° C | 64% | 1021 hPa | 0 mm | - | - | - |
| 1777694352 | 9.44° C | 63% | 1020.5 hPa | 0 mm | - | - | - |
| 1777693452 | 9.44° C | 100% | 1020.6 hPa | 0 mm | - | - | - |
| 1777692552 | 10° C | 61% | 1020.8 hPa | 0 mm | - | - | - |
| 1777691652 | 10° C | 61% | 1020.9 hPa | 0 mm | - | - | - |
| 1777690752 | 10° C | 61% | 1020.9 hPa | 0 mm | - | - | - |
| 1777689852 | 10° C | 60% | 1021.1 hPa | 0 mm | - | - | - |
| 1777688952 | 10° C | 60% | 1021 hPa | 0 mm | - | - | - |
* Rain latest hour (hover to see other rain measurements)
** Current wind speed in m/s (hover to see current wind gust speed)